Preview of NWS' New Version of Forecast
This preview is not operational and should not be used for support decisions.

Regional Weather Roundup (RWR)

Issued by National Weather Service (NWS)

                            
000
ASCA42 TJSJ 192110
RWRPR 
PUERTO RICO/U.S. VIRGIN ISLANDS HOURLY WEATHER ROUNDUP
NATIONAL WEATHER SERVICE SAN JUAN PR
500 PM AST MON AUG 19 2019

PRZ001>002-007>008-010-192200-
PUERTO RICO
  
CITY           SKY/WX    TMP DP  RH WIND       PRES   REMARKS
SAN JUAN LMM   PTSUNNY   82  79  89 E6        30.01S HX  93           
AGUADILLA      SUNNY     75  75 100 E12       30.00F                  
CEIBA          MOSUNNY   84  79  84 NE8       30.01F HX  96           
$$

VIZ001>002-192200-
U.S. VIRGIN ISLANDS
  
CITY           SKY/WX    TMP DP  RH WIND       PRES   REMARKS
CHARLOTTE AMA  MOSUNNY   86  77  74 NE9       29.99F HX  97           
CHRISTIANSTED  MOSUNNY   86  75  70 E12       30.00F HX  95           
$$

HOURLY WEATHER ROUNDUP FOR THE NEWS MEDIA
  
CITY           SKY/WX    TMP DP  RH WIND       PRES   REMARKS
ORLANDO        FAIR      83  73  72 NE7       30.04F                  
NEW YORK       TSTM      77  75  93 S20G26    29.94                   
NEWARK         PTSUNNY   88  74  63 S8        29.90F HX  96           
CHICAGO        PTSUNNY   82  68  62 NE9       29.99F                  
HARTFORD       FAIR      84  72  67 SW12      29.92S                  
BOSTON         LGT RAIN  88  72  58 W9        29.89R HX  94           
DALLAS         MOSUNNY  100  66  32 S10       29.93F HX 104           
PHILADELPHIA   PTSUNNY   87  76  69 SE8       29.94  HX  97           
LOS ANGELES    MOSUNNY   75  60  59 SW12      29.96S                  
WASHINGTON DC  PTSUNNY   93  68  43 VRB6      29.97F HX  97